weather.gov     
National Weather Service

Regional Weather Roundup
NWS Homepage
This page is being discontinued on March 12, 2014.
The same data is available at this site. Please update your bookmarks.
Thank you, and we apologize for the inconvenience.
Please send an email to SR-SRH.Webmaster@noaa.gov with any concerns.


Current Version
Previous Version:    01  02  03  04  05  06  07  08  09  10  11  12  13  14  15  16  17  18  19  20  21  22  23  24  25  26  27  28  29  30  
   31  32  33  34  35  36  37  38  39  40  41  42  43  44  45  46  47  48  49  50  51  52  53  54  55  56  57  58  59  60  
[Printable]
637
ASUS44 KLUB 221010
RWRTX
WEST TEXAS WEATHER ROUNDUP
NATIONAL WEATHER SERVICE LUBBOCK TX
500 AM CDT MON SEP 22 2014

NOTE: "FAIR" INDICATES FEW OR NO CLOUDS BELOW 12,000 FEET WITH NO
SIGNIFICANT WEATHER AND/OR OBSTRUCTIONS TO VISIBILITY.

TXZ004-006>008-010-012-014-016-OKZ002-221100-
TEXAS PANHANDLE/OKLAHOMA PANHANDLE

CITY           SKY/WX    TMP DP  RH WIND       PRES   REMARKS
AMARILLO       MOCLDY    60  55  83 E8        30.30F
BORGER         CLOUDY    65  52  62 CALM      30.30S
CANADIAN       PTCLDY    60  57  90 CALM      30.28S
DALHART        CLOUDY    65  53  65 S8        30.33S
DUMAS          MOCLDY    61  52  73 SE7       30.31S
GUYMON         CLOUDY    60  49  66 CALM      30.31R
HEREFORD       CLOUDY    62  59  92 E3        30.31S
PAMPA          CLOUDY    60  51  72 SE6       30.31S
PERRYTON       CLOUDY    61  46  59 SE5       30.30S
$$

TXZ026-029-035-045-048-221100-
SOUTHERN PANHANDLE/SOUTH PLAINS/ROLLING PLAINS

CITY           SKY/WX    TMP DP  RH WIND       PRES   REMARKS
CHILDRESS      CLOUDY    70  55  59 NE3       30.25R
SEMINOLE       MOCLDY    66  66  97 CALM      30.25S
LUBBOCK        CLOUDY    64  62  93 E7        30.26R
PLAINVIEW      CLOUDY    61  58  90 NE8       30.27S
SNYDER         CLOUDY    68  66  93 NE9       30.22R
$$

TXZ052-054-060>062-072-078-127-140-154-169-221100-
PERMIAN BASIN/CONCHO VALLEY/BIG COUNTRY/EDWARDS PLATEAU

CITY           SKY/WX    TMP DP  RH WIND       PRES   REMARKS
ABILENE        MOCLDY    72  64  76 E9        30.18R
BIG SPRING     CLOUDY    74  71  91 NE8       30.22S
BRADY          CLEAR     70  64  83 CALM      30.15S
BROWNWOOD      MOCLDY    68  66  94 N3        30.15S
JUNCTION       MOCLDY    68  64  87 CALM      30.14S
MIDLAND        CLOUDY    70  68  93 NE8       30.19F
ODESSA         CLOUDY    70  67  90 E8        30.21S
SAN ANGELO     CLOUDY    71  67  87 CALM      30.15S
SONORA         PTCLDY    70  63  78 CALM      30.20S
SWEETWATER     MOCLDY    69  69 100 N5        30.22F
WINK           CLOUDY    71  69  93 SE15      30.18S
$$

TXZ055-058-074-075-080-082-221100-
FAR WEST/SOUTHWEST MOUNTAINS/TRANS PECOS

CITY           SKY/WX    TMP DP  RH WIND       PRES   REMARKS
ALPINE         CLOUDY    68  61  78 E6        30.28F
DRYDEN           N/A     78  70  76 NE7       30.13S
EL PASO        CLOUDY    72  64  76 E9        30.16F
FORT STOCKTON  LGT RAIN  69  68  96 E5        30.18S
GUADALUPE PASS LGT RAIN  62  32  32 E26         N/A  VSB 1/4
MARFA          MOCLDY    64  63  94 CALM      30.27S
PECOS          LGT RAIN  68  66  94 NE12      30.16F
PRESIDIO       CLOUDY    75  65  70 NE12G18   30.11S
$$

TXZ014-016-019-021>030-083-221100
TEXAS TECH WEST TEXAS MESONET/TEXAS PANHANDLE/NORTHERN SOUTH PLAINS

CITY           SKY/WX    TMP DP  RH WIND       PRES   REMARKS
ABERNATHY 5ENE   N/A     63  60  92 NE7       30.28S
AMARILLO 9NNE    N/A     62  53  72 S5        30.29F
AMARILLO 7SSE    N/A     58  56  91 E5        30.31F
AMHERST 1NE      N/A     62  60  95 NE7       30.28F
BOOTLEG 11WNW    N/A     60  57  91 E5        30.35R
CANADIAN 6E      N/A     57  53  86 CALM      30.27S
CAPROCK CYN SP   N/A     67  54  64 NE2       30.28S
CHILDRESS 2NNE   N/A     65  55  70 N5        30.24R
CLARENDON 2WSW   N/A     63  55  74 N5        30.29R
CLAUDE 12SW      N/A     61  56  84 E7        30.30S
DIMMITT 2NE      N/A     60  57  91 NE6       30.30S
FLOYDADA 2NNE    N/A     63  59  87 NE9       30.26S
FRIONA 2NE       N/A     61  58  90 E8        30.32S
GOODLETT 3W      N/A     66  56  70 NE6       30.22R
HART 3N          N/A     60  57  88 NE7       30.29F
HEREFORD 2NW     N/A     61  55  82 E5        30.31S
MCLEAN 1E        N/A     59  53  78 NE3       30.28R
MEMPHIS 1NE      N/A     66  54  64 N7        30.25S
MULESHOE 2SSW    N/A     62  60  91 E8        30.29S
OLTON 6S         N/A     62  59  88 E8        30.28S
PALO DURO SP     N/A     63  52  67 E6        30.31F
PAMPA 2E         N/A     59  53  82 SE5       30.30S
PLAINVIEW 1S     N/A     62  59  90 NE5       30.27S
SILVERTON 7ESE   N/A     62  54  75 E10       30.28S
TULIA 2ENE       N/A     59  56  89 E6        30.29F
TURKEY 2WSW      N/A     66  58  76 NE2       30.26R
UMBARGER 3NNE    N/A     60  56  85 E5        30.31S
$$

TXZ033>036-039>041-045>048-221100
TEXAS TECH WEST TEXAS MESONET/SOUTH PLAINS

CITY           SKY/WX    TMP DP  RH WIND       PRES   REMARKS
AIKEN 3WSW       N/A     62  59  91 NE8       30.28F
ANDREWS 2NE      N/A     68  65  90 NE7       30.22F
ANTON 6SSW       N/A     63  61  94 NE7       30.27S
BROWNFIELD 2S    N/A     65  64  94 E10       30.25S
DENVR CTY 7WNW   N/A     65  63  93 NE10      30.25S
GAIL 2ESE        N/A     67  65  93 N7        30.21R
LAMESA 2SE       N/A     67  65  95 NE8       30.23S
LEVELLAND 4S     N/A     64  62  93 NE9       30.26S
LUBBOCK 3WNW     N/A     65  62  90 NE5       30.26S
MORTON 1ENE      N/A     64  63  97 NE8       30.28R
ODONNELL 1N      N/A     65  63  93 NE12      30.24R
PLAINS 3N        N/A     65  64  94 E12       30.27R
RALLS 1SE        N/A     65  64  96 E8        30.26S
REESE CENTER     N/A     64  62  93 NE8       30.26S
SEAGRAVES 1SW    N/A     66  65  95 NE6       30.24S
SEMINOLE 2NNE    N/A     66  64  93 NE8       30.24R
SLATON 2NE       N/A     65  64  96 NE7       30.25S
SNYDER 3E        N/A     67  65  94 NE9       30.20S
SUNDOWN 8SW      N/A     65  64  96 E8        30.26S
TAHOKA 3NNE      N/A     66  64  94 E10       30.24R
WOLFFORTH 6SSW   N/A     65  64  97 E10       30.26S
$$

TXZ031-032-036>038-042>044-221100-
TEXAS TECH WEST TEXAS MESONET/ROLLING PLAINS

CITY           SKY/WX    TMP DP  RH WIND       PRES   REMARKS
ASPERMONT 3NE    N/A     70  66  89 NE3       30.19S
FLUVANNA 3WNW    N/A     67  64  90 NE10      30.22R
GRAHAM 5SSW      N/A     66  64  93 E6        30.23S
GUTHRIE 10WSW    N/A     66  60  79 N3        30.21S
HASKELL 1NW      N/A     69  63  79 E8        30.18R
KNOX CITY 3NW    N/A     70  59  67 NE8       30.19S
LK A HENRY 1NW   N/A     68  66  94 E7        30.21R
NORTHFIELD 1S    N/A     66  59  78 NE3       30.25R
ODELL 4ENE       N/A     66  55  65 NE6       30.22S
PADUCAH 10SW     N/A     65  61  87 N6        30.23R
POST 1NE         N/A     67  67  97 NE5       30.23S
RRING SPRGS 3N   N/A     65  61  89 N5        30.25R
SEYMOUR 3NW      N/A     70  56  59 NE8       30.19S
SPUR 1W          N/A     68  63  85 NE9       30.21S
WEINERT 2NNE     N/A     69  61  76 E8        30.19R
WHITE RVR 6NE    N/A     67  64  88 NE9       30.23S
$$

TXZ052-054-060>062-072-078-127-140-154-169-221100-
TEXAS TECH WEST TEXAS MESONET/PERMIAN BASIN/
CONCHO VALLEY/BIG COUNTRY/EDWARDS PLATEAU

CITY           SKY/WX    TMP DP  RH WIND       PRES   REMARKS
COYANOSA 2N    LGT RAIN  69  68  98 E6        30.18S
JUNCTION 1SSW    N/A     65  62  90 N1        30.15S
MERTZON 3NNE     N/A     71  65  83 SW2       30.18S
SAN ANGELO 7NW   N/A     72  63  75 N2        30.16S
STRLNG CT 4WSW   N/A     70  69  97 CALM      30.20R
ST LAWRNCE 5SW   N/A     68  68  98 E3        30.19S
SWEETWATR 11SW   N/A     69  68  97 NE6       30.20F
WALL 1E          N/A     70  65  84 CALM      30.16S
$$

TXZ055-058-074-075-080-082-221100-
TEXAS TECH WEST TEXAS MESONET/FAR WEST/SOUTHWEST MOUNTAINS/TRANS PECOS

CITY           SKY/WX    TMP DP  RH WIND       PRES   REMARKS
PRSMN GAP BBNP   N/A     71  67  86 N6        30.14S
GUADLPE MTN NP   N/A     61  60  96 E9        30.31F
$$




U.S. Dept. of Commerce
NOAA National Weather Service
1325 East West Highway
Silver Spring, MD 20910
E-mail: w-nws.webmaster@noaa.gov
Page last modified: May 16, 2007
NATIONAL WEATHER SERVICE: for Safety, for Work, for Fun - FOR LIFE